sat.trackr.live / text

‹ back to catalog

RAPTOR1

NORAD 58957 · 2024-028C

PAYLOAD ACTIVE UNKNOWN

§ Identity

Operator
Country
US
Launch date
2024-02-14
Launch site
AFETR
Launch vehicle
Mass (kg)
RCS (m²)

External: N2YO · Heavens-Above · Gunter

§ Orbital elements

Epoch: 2026-09-22T04:11:22.614720Z

Period
104.78 min
Inclination
39.9914°
Eccentricity
0.0010713
Mean motion
13.74248286 rev/d
Perigee alt
976.5 km
Apogee alt
992.2 km
Semi-major
7,362.5 km
B*
4.8125e-5
RAAN
316.0866°
Arg perigee
95.1521°
Mean anomaly
265.0450°
Rev number
13,039

§ Raw data

RAPTOR11 58957U 24028C   26265.17456730 -.00000033  00000+0  48125-4 0  99942 58957  39.9914 316.0866 0010713  95.1521 265.0450 13.74248286130399

JSON: /api/v1/satellites/58957 · /tle

For live sub-satellite position, see the globe view (requires WebGL).

§ Visibility from observer

Set your observer location to see the next 7 days of passes ≥ 10°. The values pass through the URL so the page stays shareable.

No JS? Fill the form by hand. The geolocation button needs JavaScript.